{"data":{"norad_id":55170,"epoch":"2026-09-20T00:29:57.806880Z","epoch_age_seconds":63315,"freshness":"FRESH","line1":"1 55170U 23004AG  26263.02080795  .00000049  00000+0  90390-4 0  9994","line2":"2 55170  87.9201 347.0325 0002160  99.6456 260.4921 13.19250743180074","mean_motion":13.19250743,"eccentricity":0.000216,"inclination_deg":87.9201,"raan_deg":347.0325,"arg_perigee_deg":99.6456,"mean_anomaly_deg":260.4921,"bstar":9.039e-5,"rev_number":18007,"period_min":109.15286632512,"perigee_km":1185.949012204,"apogee_km":1189.2174033337,"semimajor_km":7565.7202077688,"source":"CELESTRAK","updated_at":"2026-09-20T09:00:44.756545Z"}}